Theta_e
353 357 356 346 332 327 319 319 325 323 324 331 331 329 327 328 322 319 341 345 346 347 352 353 354 354 354 354 353 358 359 360 359 360 361 360 360 361 361 361 359 358 360 363 363 362 361 362 362
351 346 349 339 324 315 317 324 322 326 330 334 333 330 329 324 332 335 339 345 347 348 351 353 353 353 354 354 354 358 357 358 359 358 359 359 357 359 358 356 361 362 362 363 362 362 362 362 362
348 347 336 330 325 316 318 325 327 329 331 331 330 334 331 326 334 337 345 348 350 349 351 352 353 353 353 354 354 355 355 355 357 357 356 356 357 357 358 361 362 363 363 363 362 361 361 359 360
348 342 336 325 319 324 325 328 328 328 330 332 331 327 333 338 335 341 347 347 347 347 350 353 355 355 354 355 355 354 354 357 359 358 355 356 360 361 361 363 362 363 362 361 362 361 359 360 360
348 338 325 321 321 326 330 330 331 326 328 329 329 325 328 339 341 344 345 345 345 347 350 351 354 354 354 353 353 356 356 356 359 360 361 360 360 360 361 363 361 362 360 361 361 361 360 361 361
335 335 320 315 318 327 330 331 330 328 329 328 327 327 332 341 339 342 343 345 347 345 348 349 354 355 354 351 349 353 356 355 356 358 360 361 360 361 362 361 361 360 360 360 360 360 360 360 362
331 328 317 318 319 325 328 332 331 327 326 327 331 325 333 336 340 341 342 344 347 348 349 350 354 355 356 355 354 354 354 354 354 354 349 350 359 360 361 361 361 360 360 360 360 359 358 359 359
337 326 315 320 320 320 328 328 332 330 327 333 333 325 328 336 340 342 344 344 346 347 350 350 350 355 353 354 356 355 355 353 353 354 356 357 358 359 361 362 361 360 360 359 359 357 357 357 360
338 324 317 318 320 324 326 324 329 336 329 334 335 331 336 340 341 340 342 344 345 346 348 349 349 357 359 358 354 355 354 356 358 357 357 357 357 355 359 361 359 358 358 358 357 356 356 355 358
331 328 321 326 323 321 326 326 329 330 329 330 333 336 338 341 340 338 338 339 342 345 348 350 350 352 354 354 358 358 358 360 359 358 357 354 357 361 356 360 359 359 358 358 357 355 356 354 353
330 326 329 326 327 330 327 327 332 328 325 328 330 333 337 337 337 336 337 339 342 346 349 349 353 356 354 352 353 354 353 354 357 360 357 355 353 353 350 352 353 352 357 353 354 354 355 352 355
326 330 330 327 329 329 327 331 329 329 330 335 334 336 338 337 336 335 336 339 343 346 347 349 352 355 352 349 349 351 351 351 352 357 359 357 350 354 353 348 352 354 355 356 359 355 358 361 360
327 329 331 331 328 328 330 329 328 330 335 338 336 337 336 336 337 337 337 340 344 345 348 349 351 354 356 356 351 350 350 352 353 354 358 357 353 354 355 358 357 360 361 358 361 362 361 361 359
330 330 330 330 328 327 324 325 330 333 336 336 336 335 336 335 336 338 338 339 342 344 346 349 347 355 358 358 360 355 353 355 353 353 356 359 356 359 355 358 358 358 363 361 362 361 357 357 357
331 326 328 329 329 323 326 320 323 335 336 334 334 335 336 337 338 338 339 339 342 345 348 348 348 353 356 354 357 354 353 352 351 353 360 357 356 358 360 358 360 358 361 365 363 362 361 354 354
325 324 319 327 330 328 325 313 324 333 334 333 333 334 335 338 339 342 343 343 344 345 349 349 344 350 353 355 356 353 352 352 352 354 356 356 356 359 361 362 360 362 364 361 359 358 356 355 355
320 312 314 321 330 328 327 319 330 332 332 332 334 334 335 337 339 343 344 345 346 348 350 349 349 348 352 357 356 358 356 352 354 356 356 357 355 358 364 362 361 369 362 360 356 357 356 355 357
310 311 313 317 324 327 324 322 329 333 330 331 334 335 335 336 337 342 344 346 347 348 350 352 351 354 354 355 359 356 353 352 353 353 353 356 355 358 363 362 366 365 360 357 360 361 360 356 355
314 311 311 320 324 324 322 321 324 332 327 328 334 334 334 335 339 342 344 346 347 348 348 351 352 355 354 348 349 349 346 350 350 353 355 357 356 358 363 361 364 366 365 364 367 364 363 358 359
313 310 315 322 325 323 321 320 324 329 330 330 330 334 334 335 338 341 343 345 346 348 348 349 352 353 354 350 354 355 353 351 352 354 356 355 356 359 357 362 363 366 363 368 366 365 357 353 357
312 310 314 315 323 324 321 319 322 328 332 333 333 333 335 336 337 340 342 344 346 347 349 350 352 352 355 355 356 355 355 361 354 352 352 354 359 357 359 359 361 366 365 360 366 365 358 349 357
308 313 315 317 317 308 320 305 319 325 326 329 332 333 333 336 338 339 341 343 345 347 350 351 351 352 356 359 356 357 348 347 348 349 350 356 362 360 360 356 356 364 364 367 365 363 363 361 351
309 316 318 317 314 311 312 309 315 322 322 326 330 330 332 334 337 337 340 342 345 347 348 350 352 354 358 360 359 357 352 349 350 349 358 360 364 363 358 356 356 359 358 365 364 366 364 362 356
317 318 318 317 312 304 307 307 310 316 320 324 329 331 334 335 337 339 341 343 344 347 348 349 353 353 357 359 359 358 354 353 351 351 350 351 356 358 362 356 356 358 360 361 360 366 364 365 360
318 312 304 303 303 302 309 307 311 318 323 326 327 330 332 337 337 338 340 341 343 344 347 348 353 354 355 357 357 357 358 356 353 352 350 352 351 352 360 363 361 352 359 359 365 366 367 365 363
311 311 304 295 299 303 309 303 312 320 326 329 331 333 335 334 337 338 341 342 344 344 347 348 351 355 356 356 358 359 360 358 351 353 351 350 349 350 359 363 362 355 359 359 359 360 360 362 360
310 307 312 304 305 301 307 309 316 320 323 326 329 331 332 335 335 337 340 342 344 346 347 349 351 355 356 355 358 358 360 359 354 358 359 354 357 355 361 361 362 362 362 364 361 354 361 362 362
311 313 304 305 297 297 303 304 307 312 318 322 324 327 332 335 335 335 338 343 345 345 347 350 352 354 356 355 356 356 357 358 358 359 359 359 359 360 360 362 361 362 363 364 365 358 361 362 356
308 307 307 308 306 300 300 305 313 316 320 322 325 328 331 333 335 337 338 340 344 346 347 348 351 352 354 354 355 356 356 357 358 357 359 359 361 363 363 363 362 361 361 363 366 363 360 361 360
312 310 310 304 304 305 304 304 318 322 323 325 328 331 335 336 337 338 340 341 342 345 348 348 350 351 353 354 356 356 357 357 355 356 356 359 360 362 364 361 359 360 360 363 363 358 357 358 357
Wind_Speed
9 9 4 4 5 6 5 6 5 9 6 3 7 7 14 10 8 7 7 5 7 10 10 10 6 7 6 5 6 8 8 10 10 11 11 11 10 10 12 13 11 13 12 14 14 14 13 11 12
7 4 4 4 5 7 7 6 8 7 8 10 8 6 7 13 13 12 9 6 6 8 9 10 8 8 8 6 7 9 8 8 8 9 10 11 12 11 15 15 11 13 13 13 14 14 14 12 12
6 5 5 4 3 4 9 9 9 10 7 5 5 8 5 8 7 6 12 10 9 9 11 11 8 9 8 9 9 8 8 8 8 9 10 10 12 14 15 16 12 13 13 13 13 12 12 10 10
4 5 5 5 7 8 11 7 5 9 9 5 7 10 8 10 5 10 12 12 12 13 14 12 11 12 12 12 11 12 8 9 9 10 12 10 13 14 16 14 12 13 12 13 13 11 10 9 7
4 4 5 5 9 9 9 6 5 6 6 7 2 9 12 10 15 14 12 10 13 14 16 12 14 15 13 12 11 13 9 9 10 12 12 13 13 13 13 13 12 13 12 12 11 11 10 10 9
4 3 3 4 7 10 7 3 5 7 9 9 12 14 8 10 12 12 10 11 13 15 9 12 14 17 17 8 11 12 14 12 7 13 16 16 14 11 13 13 12 12 11 11 11 10 9 10 11
2 1 2 3 10 10 6 3 8 6 8 10 8 9 8 13 13 12 11 9 10 13 13 11 11 16 15 16 7 11 11 12 12 17 16 17 9 9 13 12 12 11 11 11 9 7 8 8 7
0 3 1 0 8 5 4 3 4 8 10 10 2 8 11 16 13 13 11 10 10 12 11 11 6 6 7 11 16 15 17 13 9 15 9 9 11 11 13 11 10 10 10 9 7 6 7 6 7
2 5 5 3 5 8 3 4 3 2 9 8 3 6 19 18 14 13 10 9 9 8 8 14 9 8 11 11 12 12 17 15 15 15 13 12 9 11 12 11 9 9 8 7 6 6 4 5 6
3 2 2 5 4 4 8 3 4 5 9 9 11 16 19 16 14 13 12 11 9 9 7 6 8 12 11 10 10 9 9 8 8 9 8 6 5 7 9 8 7 7 7 7 5 4 3 10 4
4 5 3 8 6 10 8 4 1 2 7 6 13 16 17 16 13 12 11 11 9 9 7 9 5 7 4 8 7 7 6 7 7 8 5 7 6 6 5 6 7 8 9 8 8 7 6 5 4
4 6 5 9 6 7 6 4 5 2 5 6 14 15 14 14 13 12 11 11 11 9 8 8 6 5 5 6 5 6 6 7 6 7 6 6 5 4 3 4 6 4 3 4 2 3 3 2 2
9 9 10 7 7 7 4 6 2 8 3 6 13 13 13 12 11 9 10 11 11 10 9 8 7 6 7 4 5 5 7 5 8 6 6 4 6 4 4 4 4 3 3 4 2 1 2 1 1
9 10 12 8 8 3 2 4 4 3 3 9 14 13 11 11 11 10 9 9 9 10 9 9 8 7 6 5 4 4 5 6 5 5 7 5 3 2 4 4 4 4 2 3 1 3 4 4 3
13 11 9 7 8 3 2 4 2 5 4 10 13 12 10 10 9 9 9 9 9 9 10 9 8 8 5 4 4 4 5 5 5 6 6 5 1 3 1 3 2 3 3 1 2 1 2 4 4
4 2 4 9 7 9 5 3 7 4 5 10 12 11 10 10 11 8 9 7 8 9 9 9 7 8 6 5 3 3 4 3 4 4 5 5 4 3 2 1 3 4 1 1 0 1 1 2 2
5 7 4 8 8 6 9 6 10 7 8 10 11 12 11 10 9 9 10 8 9 8 10 9 8 8 6 6 3 2 4 4 4 4 3 5 3 3 2 1 3 1 1 2 2 1 3 2 2
8 6 3 1 9 9 7 3 8 12 8 11 10 12 11 11 12 11 9 8 8 9 9 9 8 6 4 3 3 3 4 4 3 4 4 6 4 1 1 1 2 3 3 3 1 3 2 4 5
5 5 4 4 4 6 5 3 8 11 8 8 12 13 13 11 9 8 10 9 9 9 9 10 10 8 6 5 5 5 5 4 4 4 5 6 4 3 2 1 2 2 3 4 3 1 2 2 2
9 5 8 4 5 6 2 5 6 11 14 14 11 12 14 13 11 11 9 10 11 11 9 11 10 10 7 5 4 2 3 5 4 4 5 5 5 4 3 1 1 2 3 2 2 1 2 2 2
9 4 2 5 7 6 6 7 8 11 11 14 12 11 14 14 13 12 12 12 11 12 12 11 11 11 9 6 5 5 4 2 5 6 7 6 6 5 4 2 2 1 4 3 2 1 2 4 1
11 4 3 6 9 3 4 1 7 9 12 13 15 14 18 16 14 13 14 15 14 12 12 12 12 12 11 10 7 6 9 7 5 7 5 6 6 6 4 2 3 2 2 2 2 0 5 4 4
3 3 5 4 3 5 6 7 8 4 9 14 15 18 19 17 16 16 14 13 13 13 13 13 13 13 10 11 8 6 8 5 6 5 7 4 6 5 5 3 3 3 4 3 1 0 3 1 5
4 7 6 7 5 11 8 8 8 5 1 2 12 14 16 18 16 15 14 13 12 12 13 14 14 14 12 11 11 9 6 5 2 6 7 7 7 7 6 5 4 3 2 3 3 2 3 3 4
11 13 9 9 8 2 7 8 9 4 2 1 2 12 16 16 16 15 15 14 13 14 14 13 15 14 14 12 11 11 10 7 6 6 7 5 6 6 8 6 5 6 4 3 2 3 2 2 2
12 12 10 4 5 1 4 3 8 3 2 2 2 5 9 15 15 15 16 14 14 14 14 14 15 14 14 14 12 10 10 8 8 7 5 6 5 5 6 7 6 7 6 4 4 5 5 3 4
9 10 6 8 5 8 3 2 7 4 4 4 2 2 4 10 14 16 15 15 15 15 15 15 14 13 14 15 12 11 10 10 8 8 7 7 5 3 6 7 6 6 7 6 5 6 5 3 4
9 3 8 8 4 5 6 3 3 3 3 2 3 5 5 2 5 11 14 14 13 15 14 14 14 14 14 13 12 11 11 11 10 8 9 7 5 7 6 8 8 7 7 7 7 6 7 5 5
8 10 7 9 6 8 4 4 6 4 3 4 6 4 5 4 2 6 10 13 12 12 12 13 14 14 14 14 14 13 11 12 11 10 10 9 8 7 9 9 9 8 9 8 7 6 4 7 6
7 10 6 9 10 6 8 5 8 5 5 3 5 5 6 5 3 5 8 10 12 14 13 13 12 14 14 13 13 14 13 13 13 12 12 11 10 10 8 8 9 10 10 10 11 10 8 8 9
Wind_Direction
190 199 206 236 245 232 81 85 88 115 132 66 85 16 73 27 7 44 92 101 126 133 130 157 142 145 150 146 123 134 141 145 140 140 133 129 116 111 107 95 109 113 121 117 113 111 107 108 108
185 180 214 268 248 163 95 85 91 69 90 107 88 123 58 75 75 106 122 110 113 122 121 104 124 135 136 131 138 133 148 151 138 140 140 129 122 120 112 115 130 124 125 120 114 113 113 112 101
222 245 263 267 231 103 103 74 89 100 119 134 110 52 37 85 71 78 102 109 111 93 91 99 110 107 119 127 141 122 145 141 146 137 125 130 128 122 124 137 123 123 115 111 111 111 117 119 113
207 209 219 242 125 72 101 91 111 118 102 86 105 90 88 46 94 111 128 129 121 111 96 101 101 89 102 109 129 143 141 140 141 129 130 133 132 128 127 120 125 115 116 122 111 115 110 97 95
224 252 229 168 89 114 91 72 38 108 85 118 162 112 101 87 108 120 129 123 114 101 113 93 96 94 86 93 99 114 120 117 131 126 118 127 120 125 123 121 118 107 116 118 119 111 95 80 92
215 298 211 157 115 124 101 57 68 76 115 108 119 118 81 121 129 126 130 115 107 107 86 112 105 104 116 106 103 87 90 82 91 113 115 111 112 121 119 122 116 120 127 122 115 104 96 81 88
309 358 70 98 137 135 110 359 63 73 103 90 126 115 120 147 129 134 120 108 105 104 109 88 97 110 118 116 114 85 92 96 100 110 112 108 106 134 121 117 122 126 128 122 119 117 92 82 90
227 104 108 96 166 118 101 65 43 37 87 111 135 147 159 147 147 133 130 132 137 117 120 109 107 113 124 111 111 126 119 111 108 111 107 136 128 118 123 127 125 121 130 128 134 120 100 101 81
251 232 170 151 202 124 134 127 115 264 137 57 24 111 128 144 154 146 137 118 125 102 128 128 135 125 129 129 131 141 128 146 140 138 153 161 162 149 152 83 122 128 138 146 148 131 129 137 115
307 304 21 48 112 149 149 128 160 183 146 92 104 107 128 147 161 155 158 145 141 132 110 99 135 145 151 125 135 138 138 137 134 140 143 115 105 46 93 96 117 128 141 160 147 146 184 227 125
41 25 76 83 107 139 141 132 298 201 157 98 131 135 143 151 161 161 153 145 133 144 137 113 119 117 137 116 150 153 144 137 120 122 130 107 130 154 151 144 162 155 192 175 186 177 214 68 8
98 46 91 112 105 101 79 136 167 165 67 79 131 140 151 163 163 158 146 143 143 142 131 118 124 114 113 143 143 131 130 132 137 112 141 135 140 143 143 129 125 173 144 110 175 141 41 310 92
89 94 102 129 139 99 91 38 195 155 101 119 138 145 160 165 155 147 146 144 144 146 140 142 137 143 131 143 127 117 136 134 125 135 101 106 118 114 149 115 131 106 144 152 169 211 25 31 69
105 112 120 126 126 79 72 348 264 123 136 143 155 153 161 161 154 149 155 152 156 145 147 135 152 144 137 125 135 125 133 124 132 117 102 105 101 100 121 131 124 120 132 97 71 41 38 68 104
128 126 125 141 147 115 118 333 129 128 177 163 164 159 157 162 156 160 156 157 164 166 147 150 154 151 164 134 151 123 159 138 138 121 121 106 106 119 44 88 120 97 96 159 157 151 120 84 91
134 181 146 159 165 144 149 201 214 242 197 180 172 163 171 171 172 171 150 158 154 153 155 162 163 159 167 110 123 105 92 130 132 135 132 127 115 56 130 130 79 55 183 155 53 3 56 47 58
192 72 65 160 196 149 219 125 156 193 216 208 185 182 182 182 184 172 161 169 159 154 164 170 168 167 165 144 141 178 114 141 140 143 132 123 120 77 328 94 82 313 229 240 279 75 355 66 9
52 52 60 15 171 212 197 183 160 172 188 209 198 204 192 199 192 175 187 166 164 163 169 182 177 168 179 184 201 185 151 151 138 132 98 150 138 174 283 125 26 277 222 197 228 344 19 342 355
329 341 24 86 139 211 228 243 179 181 195 206 230 207 201 206 190 182 181 177 173 170 184 179 186 179 205 204 202 173 180 166 175 166 139 148 150 194 251 207 194 253 270 6 211 215 253 322 3
282 304 83 104 161 242 198 238 179 202 200 210 217 227 212 201 200 191 192 191 187 176 179 187 189 185 197 189 198 240 209 178 192 165 158 160 165 191 207 233 135 20 113 129 106 356 343 3 33
240 309 113 43 171 236 266 214 188 194 212 207 192 239 244 223 212 204 202 203 196 186 180 178 187 187 195 199 188 194 183 166 194 166 171 176 180 188 215 186 285 229 283 140 162 289 328 333 108
270 70 183 157 223 82 262 114 166 181 196 200 223 211 230 208 222 217 203 202 200 193 179 177 175 187 189 188 195 202 219 186 169 175 155 162 184 184 188 182 198 239 302 71 122 88 323 299 344
3 154 209 244 265 274 156 263 107 177 215 214 210 199 219 238 219 213 211 201 202 187 185 177 175 186 190 190 216 211 241 165 177 173 147 187 166 188 180 192 189 215 242 127 89 226 14 303 322
128 160 187 221 271 240 84 295 140 135 342 127 201 210 213 212 219 221 208 204 199 196 192 178 178 188 196 200 195 205 211 266 204 197 181 185 182 177 185 175 202 214 224 211 211 223 205 327 321
208 207 216 212 198 317 80 266 49 76 174 360 212 215 212 221 216 215 215 204 203 201 196 186 182 189 191 204 203 201 204 212 218 204 219 195 195 190 165 189 189 199 209 206 227 210 224 198 318
220 266 272 250 264 192 141 256 88 95 155 140 217 251 241 208 216 220 214 212 205 203 201 200 188 195 190 197 205 208 210 204 219 211 236 213 209 197 151 195 193 190 201 195 205 225 245 192 243
144 226 336 298 200 257 74 141 184 162 200 217 132 162 202 222 213 214 213 215 211 207 205 201 200 201 199 194 201 204 208 228 229 235 207 208 225 187 192 206 206 197 201 210 192 240 222 241 234
289 57 212 215 258 263 98 273 7 87 89 132 229 106 103 127 215 210 222 219 217 214 210 209 207 204 204 202 200 206 207 215 222 221 229 239 235 228 194 209 213 213 215 210 209 211 212 237 252
174 211 233 309 332 309 240 117 79 106 108 52 95 127 84 94 159 212 221 218 221 229 214 213 204 206 204 200 201 206 207 210 215 223 221 227 222 223 222 224 225 225 225 219 220 241 261 234 246
274 289 236 238 186 232 320 327 112 124 138 112 100 85 62 34 336 232 204 217 200 217 212 215 210 204 209 206 204 204 207 212 209 220 227 224 227 218 218 220 227 231 223 228 223 226 238 221 239